Regional Weather Roundup
Issued by NWS

Home | Current Version | Previous Version | Text Only | Print | Product List | Glossary On
Versions: 1 2 3 4 5 6 7 8 9 10 11 12 13 14 15 16 17 18 19 20 21 22 23 24 25 26 27 28 29 30 31 32 33 34 35 36 37 38 39 40 41 42 43 44 45 46 47 48 49 50
000
ASUS43 KLMK 190302
RWRKY
KENTUCKY REGIONAL WEATHER ROUNDUP
NATIONAL WEATHER SERVICE LOUISVILLE KY
1100 PM EDT THU SEP 18 2014

NOTE "FAIR" INDICATES FEW OR NO CLOUDS BELOW 12,000 FEET
WITH NO SIGNIFICANT WEATHER AND/OR OBSTRUCTIONS TO VISIBILITY.

KYZ001>023-026-027-061>063-070>075-190400-
WESTERN AND SOUTH CENTRAL KENTUCKY

CITY           SKY/WX    TMP DP  RH WIND       PRES   REMARKS
PADUCAH        CLEAR     67  56  67 CALM      30.04R
HENDERSON      CLEAR     55  50  82 CALM      30.07R
OWENSBORO      CLEAR     64  55  72 CALM      30.07S
HOPKINSVILLE   CLEAR     62  59  90 NE6       30.04R
BOWLING GREEN  CLEAR     61  54  77 NE5       30.06R
GLASGOW        CLEAR     60  53  79 CALM      30.07R
$$

KYZ024-025-028>034-038-045-046-053-190400-
NORTH CENTRAL KENTUCKY

CITY           SKY/WX    TMP DP  RH WIND       PRES   REMARKS
LOUISVILLE/SDF CLEAR     65  50  58 NE6       30.09R
LOUISVILLE/LOU CLEAR     65  49  56 NE5       30.09R
FORT KNOX      CLEAR     61  52  71 NE5       30.08R
$$

KYZ035>037-039>044-047>052-055>060-089>105-190400-
NORTHEAST KENTUCKY

CITY           SKY/WX    TMP DP  RH WIND       PRES   REMARKS
LEXINGTON      CLEAR     63  50  62 E8        30.10R
COVINGTON      CLEAR     60  46  59 E7        30.13R
FRANKFORT      CLEAR     54  51  90 CALM      30.09R
$$

KYZ054-064>069-076>088-106>120-190400-
SOUTHEAST KENTUCKY

CITY           SKY/WX    TMP DP  RH WIND       PRES   REMARKS
JACKSON        CLEAR     61  51  70 CALM      30.11R
LONDON         CLEAR     62  53  72 NE3       30.09R
SOMERSET       NOT AVBL
MIDDLESBORO    CLEAR     58  56  92 CALM      30.09R
MONTICELLO     CLEAR     57  55  93 CALM      30.09R
$$




USA.gov is the U.S. government's official web portal to all federal, state and local government web resources and services.